Dewpoint
55 50 40 38 36 38 34 37 39 39 36 30 29 29 29 32 28 20 54 58 63 64 67 68 69 69 67 65 63 62 60 58 56 59 59 62 61 60 59 59 60 61 60 57 57 56 59 59 64
56 45 36 39 33 34 33 37 38 40 39 30 29 31 29 30 47 53 55 63 64 66 67 68 70 68 65 64 63 61 59 59 58 58 63 62 61 61 60 59 57 57 57 57 59 56 55 56 59
45 42 31 33 35 31 33 39 37 39 32 28 27 31 31 31 46 53 55 63 64 66 67 69 70 67 65 63 63 61 60 59 59 59 63 63 61 60 59 58 56 57 57 57 58 57 55 55 55
39 32 30 30 30 32 34 34 33 38 34 27 27 30 37 47 47 52 56 61 64 65 68 70 70 68 66 63 62 61 59 60 59 63 64 63 61 60 58 56 56 57 56 56 56 57 57 55 55
36 28 24 24 24 27 27 26 32 37 36 31 26 31 37 50 54 55 56 61 61 64 67 70 70 68 66 64 63 61 59 60 58 60 62 62 62 59 57 57 56 57 57 57 56 56 57 55 57
33 28 21 20 22 23 23 25 28 36 37 30 27 34 38 50 54 55 56 58 61 63 67 69 70 68 66 64 63 62 60 60 59 60 61 61 60 59 58 59 58 58 60 59 58 56 56 58 57
33 31 26 24 22 22 23 32 33 35 35 29 29 33 43 51 53 55 55 56 63 66 68 69 69 68 66 65 65 63 61 61 60 58 60 60 59 60 60 59 60 60 60 60 58 56 56 56 58
35 32 27 23 20 21 27 32 34 31 31 28 33 32 35 46 53 55 54 54 62 65 66 68 67 66 65 65 65 63 63 62 60 60 61 60 60 60 61 62 61 61 61 60 58 57 54 54 57
37 32 29 24 23 26 29 29 34 35 31 30 38 38 43 47 54 54 53 54 57 64 65 66 65 64 64 64 65 63 63 62 60 61 61 60 60 60 61 62 61 62 61 60 59 56 52 52 54
36 33 32 31 27 32 33 31 32 32 32 31 37 50 51 52 53 52 52 53 54 60 63 65 65 64 63 62 62 63 62 61 61 61 61 60 59 58 60 61 61 61 61 61 59 57 54 54 56
37 34 35 35 35 36 33 31 32 30 31 32 32 42 51 52 52 52 52 53 54 54 56 62 63 63 62 60 60 61 61 60 60 61 60 60 59 58 58 59 60 62 61 60 60 58 56 53 53
38 37 36 36 37 36 31 32 32 31 30 33 33 36 51 51 51 52 52 53 54 55 55 55 61 62 61 59 59 60 60 60 60 60 60 59 58 57 57 58 59 60 59 59 58 57 56 53 52
39 39 39 38 37 34 31 30 31 31 31 32 33 40 48 50 50 52 53 54 53 54 55 55 56 59 59 58 59 59 58 59 59 59 59 59 58 57 56 57 59 59 59 58 57 57 56 55 52
39 37 35 33 32 32 31 31 31 31 31 30 32 39 46 49 49 51 52 52 52 52 54 56 56 56 57 56 57 58 58 57 58 58 58 58 58 57 56 55 57 57 57 57 57 56 55 54 52
35 34 35 32 32 31 31 29 27 29 29 28 29 32 36 43 48 50 51 52 52 51 51 54 56 57 57 56 54 55 56 56 57 57 57 57 56 56 56 55 54 54 54 55 55 54 53 52 51
30 31 29 30 31 31 30 27 28 29 29 28 28 30 29 30 31 33 34 39 46 50 49 50 54 57 57 57 57 54 52 53 54 55 55 55 55 55 55 55 54 53 53 53 52 51 51 51 50
31 28 27 27 29 29 29 27 28 29 28 27 28 26 30 33 35 38 40 40 39 39 47 48 52 55 57 58 58 57 54 52 52 53 54 54 54 55 55 55 55 54 53 52 52 52 52 51 51
30 28 27 26 26 29 27 28 28 28 24 24 25 29 32 34 37 40 43 44 43 43 42 45 49 53 57 57 59 59 58 57 55 54 54 53 53 54 55 55 55 55 54 53 53 52 52 52 52
30 27 25 25 26 26 27 27 27 27 25 25 29 31 34 36 38 40 42 43 44 45 43 42 43 45 53 58 58 58 58 58 58 57 56 56 55 54 54 55 55 55 55 54 54 53 52 52 53
30 27 24 26 28 27 25 25 26 22 26 29 31 33 35 37 38 39 40 41 42 42 44 43 43 44 50 55 57 58 58 59 59 59 59 58 58 57 56 55 55 55 55 55 55 54 53 53 53
29 27 26 27 28 28 27 26 22 25 30 32 33 34 36 37 38 39 40 42 42 40 40 41 43 46 47 53 56 57 58 58 57 58 58 59 60 60 59 58 57 56 56 56 56 56 54 54 55
27 28 28 27 26 23 27 21 21 26 29 31 32 33 35 37 39 41 41 41 41 41 41 41 41 41 41 46 47 49 50 50 53 54 56 55 56 58 59 59 59 59 58 57 57 57 57 56 54
27 30 28 26 25 24 24 24 22 25 27 30 32 33 34 37 39 40 41 41 42 42 42 41 41 41 41 40 41 41 41 46 48 47 45 46 49 51 53 55 58 59 59 59 58 58 58 58 57
31 27 27 27 25 22 23 23 21 24 26 30 33 33 34 37 40 40 41 41 41 41 42 42 41 41 41 41 41 41 41 41 41 41 42 43 45 47 46 46 48 54 58 59 60 60 60 60 60
27 26 24 23 23 20 22 22 22 24 28 29 33 33 33 37 39 40 39 40 40 40 40 41 41 41 41 42 42 43 43 43 42 42 42 43 43 43 43 43 43 43 44 47 52 57 60 60 59
25 26 24 22 22 22 21 19 20 25 29 32 34 34 34 36 38 39 39 40 40 40 40 40 41 41 42 43 43 44 44 44 44 44 44 44 43 44 43 43 43 43 43 43 44 46 48 51 54
24 25 28 26 26 24 24 25 23 31 32 33 34 34 34 35 37 39 39 40 39 40 39 40 42 43 44 44 44 44 45 44 44 43 44 43 43 42 42 43 43 43 44 43 43 43 44 45 46
26 26 24 25 22 19 21 21 22 28 31 34 34 34 34 34 37 39 39 39 39 40 41 43 43 43 43 43 43 43 44 43 42 42 41 41 41 41 41 41 41 42 43 43 43 43 43 43 44
24 22 21 24 23 20 19 20 24 24 31 33 34 35 35 34 37 38 39 39 40 42 43 43 42 40 39 40 41 40 42 41 41 39 39 38 38 37 37 38 39 40 41 39 39 40 40 40 42
28 26 23 20 20 22 20 20 25 27 28 31 33 35 36 36 37 38 38 41 42 42 42 40 38 36 36 38 38 37 40 37 35 33 33 34 33 33 34 36 36 35 34 36 38 39 39 40 37
Wind_Speed
12 16 3 4 2 2 4 4 5 6 3 3 2 2 5 3 2 3 1 11 13 19 16 17 16 19 18 14 12 11 9 9 7 5 6 10 7 6 5 4 3 7 6 4 2 5 5 3 6
11 7 5 3 2 5 4 3 4 9 5 5 3 2 1 2 1 3 6 10 20 19 16 15 18 19 16 14 12 10 10 8 7 8 6 10 10 6 6 5 4 2 4 4 4 5 4 2 5
10 3 2 2 2 7 4 3 10 6 6 4 2 3 2 2 1 9 5 18 17 17 16 15 20 19 17 15 13 10 9 7 8 8 7 9 10 9 6 5 5 4 5 4 5 1 5 3 1
6 5 4 0 6 7 5 16 19 9 4 5 3 2 0 2 3 8 12 20 19 18 17 19 20 20 18 17 14 11 11 8 9 9 8 9 9 9 5 6 7 6 5 4 5 4 2 6 5
5 4 3 2 6 5 7 13 16 12 5 6 4 4 2 4 0 12 15 19 21 18 17 19 22 21 20 18 16 13 12 11 8 6 5 1 10 8 7 6 6 6 5 5 5 7 7 7 6
3 3 2 4 6 7 11 13 17 10 7 7 6 8 4 3 9 11 12 16 17 19 16 17 21 21 20 19 17 15 14 12 12 11 6 5 5 5 6 7 8 8 8 7 7 7 9 9 9
2 2 3 6 11 6 6 21 9 13 3 9 7 5 2 9 11 12 13 11 14 15 16 15 16 17 19 18 17 15 14 14 13 12 10 8 5 5 8 7 7 10 10 9 8 9 10 12 12
3 2 2 5 6 5 10 22 12 6 4 3 4 5 5 10 16 13 11 11 15 15 16 17 16 16 16 15 18 16 14 13 14 11 12 9 8 7 7 7 9 12 11 10 10 11 12 13 14
3 1 6 6 3 4 14 19 7 9 5 3 4 2 4 11 17 14 11 9 14 15 16 15 18 18 18 16 15 16 16 15 14 11 15 12 10 9 10 10 10 11 12 12 14 14 14 14 15
5 5 8 6 4 12 19 17 16 10 18 3 3 4 5 18 18 19 18 20 18 20 18 17 17 19 18 13 13 15 15 15 12 13 14 13 11 11 11 14 15 15 17 17 16 16 15 15 12
6 7 9 16 16 13 12 18 6 8 10 6 5 8 11 13 17 19 20 21 23 17 18 18 18 17 17 14 15 14 14 14 13 14 14 14 12 14 14 14 14 15 18 14 15 14 13 13 13
6 12 14 17 17 10 12 9 13 11 15 9 16 10 18 15 20 22 23 22 15 17 19 17 19 18 18 14 14 15 15 15 16 16 17 16 15 16 16 15 16 16 13 15 15 14 15 16 16
9 13 14 21 21 14 14 16 16 15 21 12 12 10 22 21 23 19 18 15 17 19 21 22 19 21 19 18 15 15 16 15 15 16 16 16 16 16 16 16 15 16 14 15 15 16 16 17 18
5 9 15 12 18 11 13 18 6 12 16 19 8 15 19 21 25 17 19 24 23 21 24 21 23 21 20 19 19 18 16 18 17 16 17 19 17 17 17 16 17 17 15 14 15 17 17 17 16
8 14 17 20 19 12 7 14 15 21 13 19 14 14 15 23 11 18 9 17 16 20 18 23 22 20 23 22 21 17 17 16 16 17 17 20 19 19 19 17 17 14 10 14 14 14 13 14 14
3 1 5 7 7 11 9 16 21 18 9 18 17 5 7 7 4 4 6 10 13 17 21 21 19 19 21 20 16 15 16 16 17 16 16 18 17 15 14 13 13 10 12 15 15 16 19 19 19
1 7 8 14 9 6 12 9 16 7 10 11 6 6 10 10 13 12 11 9 10 9 15 18 19 22 24 19 16 17 17 18 16 16 17 16 17 14 17 16 16 13 15 17 16 16 17 19 17
8 7 7 10 5 13 14 21 20 12 7 8 9 10 11 12 11 10 14 14 12 12 14 4 10 13 12 11 11 11 11 15 15 18 18 17 16 18 18 17 18 16 16 17 16 21 16 19 20
7 5 10 19 15 12 19 15 19 10 7 13 12 11 10 10 5 11 14 15 15 17 17 13 13 6 12 9 10 11 19 14 17 16 15 16 16 18 18 17 17 16 20 22 19 18 20 21 13
15 17 20 17 6 3 5 14 12 5 10 13 15 10 9 7 11 14 15 16 19 18 18 18 14 17 5 9 5 4 4 8 10 10 14 16 16 17 17 18 19 17 18 19 20 19 21 19 13
16 19 14 6 7 5 2 8 5 2 8 8 7 9 8 10 11 13 15 16 17 21 19 20 19 19 17 7 3 3 3 1 4 6 10 12 15 17 17 19 19 19 16 21 20 19 20 24 20
21 17 15 6 3 6 1 6 3 11 11 8 10 10 10 9 9 10 13 17 17 17 18 21 21 20 19 18 17 14 8 7 5 7 7 10 9 12 15 17 18 19 17 19 22 20 21 21 23
16 8 3 2 1 3 3 4 5 13 13 14 12 11 10 9 10 10 11 12 13 15 18 19 20 22 21 21 19 17 16 10 7 10 14 16 15 13 12 12 14 16 16 19 21 21 20 21 22
9 5 5 3 1 6 14 13 6 19 24 18 12 13 13 11 9 8 8 11 13 14 15 16 19 20 20 21 21 20 19 17 18 18 18 17 16 15 17 18 16 15 13 16 18 20 20 21 22
6 7 3 5 5 9 1 8 16 19 15 28 24 18 14 12 10 9 8 9 9 12 13 13 16 19 18 20 21 20 18 18 17 16 15 16 16 16 19 18 19 17 17 16 16 17 18 21 22
10 8 6 7 6 3 1 8 7 8 6 15 21 20 15 12 9 8 8 7 8 9 11 14 17 19 19 19 18 17 17 15 15 14 14 16 16 15 16 18 17 18 19 18 17 16 16 18 18
6 10 3 2 1 2 5 6 4 9 17 22 22 19 16 12 11 10 7 7 7 12 13 14 16 17 19 19 18 19 18 18 17 17 15 16 14 16 19 18 18 19 18 18 18 18 19 18 17
4 7 5 2 5 5 4 6 7 6 20 21 21 20 14 11 10 8 7 5 9 13 13 16 16 16 15 16 16 15 17 18 17 16 19 18 17 18 18 20 20 21 20 19 20 20 21 21 19
5 4 2 3 3 4 3 4 4 12 21 26 21 18 17 15 12 10 6 9 15 13 14 14 15 16 17 17 16 16 16 15 14 14 15 16 16 17 19 19 20 20 20 21 21 22 23 22 22
4 8 8 5 5 2 2 5 6 2 19 18 19 20 12 13 12 8 11 16 13 12 12 13 14 15 14 13 14 15 14 15 17 18 18 18 19 19 20 20 21 21 23 22 22 23 22 18 25
Wind_Direction
321 328 11 48 179 68 234 270 276 310 270 235 353 248 124 101 179 267 104 184 146 155 165 170 177 171 163 166 172 172 179 169 165 194 186 156 146 146 146 127 103 109 117 118 191 177 179 146 144
328 342 35 87 155 203 241 243 5 254 269 315 132 115 53 224 163 157 141 164 151 156 164 169 173 165 162 169 171 173 174 176 180 207 190 170 153 136 134 129 159 162 139 145 172 185 142 171 188
336 38 38 97 145 218 210 233 317 308 279 226 185 75 156 218 249 172 191 157 149 158 165 171 170 170 169 172 174 177 178 179 192 206 187 177 157 152 152 159 170 163 159 156 165 278 163 125 187
350 9 36 169 239 260 256 298 302 282 279 231 141 167 45 289 206 197 148 159 157 167 167 168 171 173 173 175 175 180 183 192 219 196 171 170 170 154 177 179 180 185 179 179 185 193 210 197 212
36 60 349 315 280 272 287 284 284 271 290 274 187 209 246 323 84 148 149 159 167 171 171 171 174 178 178 179 181 179 187 194 199 186 161 225 182 177 183 199 193 189 198 202 209 211 214 222 219
20 84 341 279 274 284 296 282 291 277 259 253 178 154 221 191 152 173 162 168 169 173 176 176 179 179 180 181 184 183 191 197 197 199 190 216 206 188 204 206 218 210 208 210 217 224 226 226 229
106 84 239 270 273 317 308 328 290 265 315 261 149 166 256 199 198 176 173 167 172 165 168 173 177 181 183 185 186 187 198 213 214 215 209 221 235 207 209 224 231 216 219 226 231 234 234 232 231
123 121 253 257 270 281 327 337 345 36 303 268 160 206 242 214 180 175 176 175 181 175 172 173 175 178 181 186 189 190 198 216 201 211 197 213 218 217 219 229 239 221 219 230 237 241 241 237 235
124 176 253 256 254 282 323 335 315 316 305 334 330 155 262 152 160 166 178 202 187 191 184 181 183 185 186 192 195 197 202 210 210 220 198 208 217 221 219 218 226 221 224 230 238 245 246 243 237
183 188 231 228 248 299 307 312 312 336 330 306 318 4 117 147 170 177 189 204 198 197 199 193 191 192 192 192 198 203 206 212 217 205 204 207 214 223 227 230 228 230 225 228 237 245 247 243 234
187 219 239 269 272 273 283 298 300 308 304 285 292 232 180 171 187 196 205 209 212 202 199 200 197 196 195 199 197 203 209 213 216 212 209 213 219 229 233 235 236 229 229 232 239 245 248 239 236
227 240 244 273 276 285 280 286 289 269 262 275 298 257 185 199 207 208 215 220 218 217 220 203 200 198 202 200 194 201 207 214 217 215 214 215 225 232 235 232 229 224 228 234 240 246 249 247 243
235 254 267 269 280 273 269 281 264 269 279 304 280 210 202 209 216 223 226 232 229 228 224 220 198 202 202 202 198 199 207 211 215 218 219 217 225 232 232 231 225 224 224 229 237 241 243 245 246
230 247 271 283 281 279 279 285 266 264 278 298 267 235 216 217 223 226 229 233 229 227 226 218 212 202 197 199 198 201 202 211 212 218 222 220 221 227 229 227 228 232 226 228 233 236 236 240 241
262 274 289 269 263 257 293 279 250 268 288 283 269 242 243 236 255 243 279 260 249 240 233 222 215 207 204 204 203 201 205 209 215 221 224 225 222 226 228 230 233 238 236 243 245 251 251 252 251
285 290 281 281 258 240 192 267 274 283 313 270 257 352 308 326 30 34 2 277 261 246 238 229 211 207 209 210 206 205 210 212 219 220 227 231 232 228 235 245 254 249 237 239 238 239 248 248 244
321 258 258 300 226 198 191 255 262 272 335 295 289 128 94 77 49 29 21 10 13 350 256 238 218 207 209 212 206 206 210 217 224 225 228 232 233 229 231 239 245 240 240 242 242 249 241 256 253
209 232 259 262 269 208 205 238 263 296 304 271 124 107 89 73 51 30 28 26 22 20 37 13 246 229 225 222 208 211 216 226 225 229 231 230 231 230 229 238 244 235 240 247 241 246 245 248 258
209 249 287 292 267 202 217 229 255 287 135 132 128 120 105 91 66 48 39 32 34 36 39 33 37 7 206 200 215 225 228 231 235 233 237 236 235 235 234 240 245 235 239 247 242 240 248 256 247
237 267 283 289 282 239 238 257 283 159 158 150 145 133 115 92 55 39 35 34 38 41 41 43 41 32 35 203 196 203 236 249 248 247 248 247 246 243 240 241 247 244 243 248 247 241 250 253 236
235 239 258 259 319 299 263 279 200 116 138 145 138 128 106 85 67 42 37 34 34 38 37 42 42 40 40 55 144 133 122 302 334 306 285 276 265 259 251 250 248 250 235 248 248 239 236 254 256
234 239 239 260 312 265 4 284 227 180 176 164 151 125 103 86 68 53 43 43 40 38 43 47 45 45 42 45 56 58 54 32 353 336 328 326 315 292 271 262 259 255 248 246 247 246 238 244 251
228 196 203 252 283 332 255 244 251 180 208 194 182 143 123 96 87 70 60 56 47 41 42 41 43 42 41 51 56 56 50 35 11 15 14 11 4 5 358 336 303 275 266 258 257 256 249 246 246
154 123 51 49 57 263 236 204 255 191 216 195 186 162 140 125 112 97 75 61 52 45 45 44 46 40 36 39 37 38 36 26 25 17 17 12 6 3 5 359 357 344 314 291 279 271 265 259 254
122 130 213 224 218 235 147 193 248 212 203 192 175 167 155 145 137 112 97 77 61 52 45 45 47 41 39 44 42 38 38 38 35 26 18 13 5 358 355 355 352 348 340 334 325 305 287 280 280
182 179 191 215 199 222 161 231 244 269 204 149 161 160 161 155 136 137 128 106 72 51 39 42 54 50 40 37 35 33 34 32 27 20 12 9 2 350 345 344 343 339 338 335 332 326 315 308 299
180 205 199 256 27 291 224 272 274 81 132 150 157 162 168 165 166 157 139 99 77 51 56 70 64 50 40 36 33 30 28 25 19 13 11 1 353 347 342 338 333 330 327 327 325 322 318 315 308
161 158 182 220 215 235 263 262 249 165 158 156 165 175 181 184 169 153 143 126 78 87 72 63 56 51 39 35 31 25 21 17 13 9 3 356 347 342 338 335 331 327 324 324 323 320 316 312 308
163 197 164 160 167 230 251 253 232 220 180 175 183 189 191 186 176 169 150 93 98 80 69 61 50 41 32 27 21 19 14 10 7 4 355 348 341 340 336 332 328 325 323 323 320 316 314 313 311
207 201 178 181 208 190 171 275 326 252 185 178 193 202 195 184 175 144 115 113 96 84 71 58 46 37 25 19 16 14 14 11 7 359 352 348 345 342 339 337 334 332 328 323 319 315 313 324 316